When you browse on this site, cookies collect data to enhance your experience and personalize the content and advertising you see.
Visit our Privacy Policy to learn more. By continuing to use the site, you agree to this use of cookies and data.
EN

Hourly Weather Goianira

Today, 24 September, Thursday

Time Temperature Precipitation Wind Pressure Humidity
00:00 +23°C° 0 mm 1 mps 697 mmHg 56%
01:00 +23°C° 0 mm 1 mps 697 mmHg 56%
02:00 +22°C° 0 mm 1 mps 696 mmHg 57%
03:00 +22°C° 0 mm 1 mps 696 mmHg 57%
04:00 +22°C° 0 mm 1 mps 696 mmHg 61%
05:00 +20°C° 0 mm 2 mps 696 mmHg 65%
06:00 +20°C° 0 mm 2 mps 696 mmHg 69%
07:00 +22°C° 0 mm 3 mps 697 mmHg 63%
08:00 +26°C° 0 mm 3 mps 698 mmHg 57%
09:00 +28°C° 0 mm 4 mps 699 mmHg 51%
10:00 +30°C° 0 mm 4 mps 698 mmHg 44%
11:00 +33°C° 0 mm 3 mps 698 mmHg 38%
12:00 +35°C° 0 mm 3 mps 698 mmHg 32%
13:00 +35°C° 0 mm 2 mps 697 mmHg 30%
14:00 +36°C° 0 mm 2 mps 696 mmHg 29%
15:00 +36°C° 0 mm 2 mps 695 mmHg 27%
16:00 +34°C° 0 mm 1 mps 695 mmHg 30%
17:00 +32°C° 0 mm 1 mps 695 mmHg 32%
18:00 +31°C° 0 mm 1 mps 695 mmHg 35%
19:00 +30°C° 0 mm 1 mps 695 mmHg 36%
20:00 +30°C° 0 mm 1 mps 695 mmHg 37%
21:00 +29°C° 0 mm 1 mps 696 mmHg 38%
22:00 +28°C° 0 mm 1 mps 696 mmHg 42%
23:00 +27°C° 0 mm 1 mps 696 mmHg 45%

Tomorrow, 25 September, Friday

Time Temperature Precipitation Wind Pressure Humidity
00:00 +25°C° 0 mm 2 mps 695 mmHg 49%
01:00 +25°C° 0 mm 2 mps 695 mmHg 52%
02:00 +24°C° 0 mm 1 mps 695 mmHg 56%
03:00 +24°C° 0 mm 1 mps 694 mmHg 59%
04:00 +24°C° 0 mm 2 mps 695 mmHg 61%
05:00 +23°C° 0 mm 2 mps 695 mmHg 62%
06:00 +23°C° 0 mm 2 mps 695 mmHg 64%
07:00 +25°C° 0 mm 3 mps 696 mmHg 56%
08:00 +28°C° 0 mm 3 mps 697 mmHg 48%
09:00 +30°C° 0 mm 4 mps 697 mmHg 41%
10:00 +33°C° 0 mm 4 mps 697 mmHg 35%
11:00 +35°C° 0 mm 3 mps 697 mmHg 29%
12:00 +37°C° 0 mm 3 mps 697 mmHg 22%
13:00 +37°C° 0 mm 3 mps 696 mmHg 21%
14:00 +38°C° 0 mm 3 mps 696 mmHg 20%
15:00 +38°C° 0 mm 3 mps 695 mmHg 19%
16:00 +36°C° 0 mm 3 mps 694 mmHg 21%
17:00 +35°C° 0 mm 3 mps 694 mmHg 24%
18:00 +32°C° 0 mm 2 mps 694 mmHg 27%
19:00 +31°C° 0 mm 2 mps 694 mmHg 29%
20:00 +29°C° 0 mm 2 mps 694 mmHg 30%
21:00 +28°C° 0 mm 2 mps 694 mmHg 32%
22:00 +27°C° 0 mm 2 mps 694 mmHg 33%
23:00 +27°C° 0 mm 3 mps 694 mmHg 35%

Day after tomorrow, 26 September, Saturday

Time Temperature Precipitation Wind Pressure Humidity
00:00 +26°C° 0 mm 3 mps 694 mmHg 36%
01:00 +26°C° 0 mm 3 mps 694 mmHg 37%
02:00 +25°C° 0 mm 3 mps 694 mmHg 38%
03:00 +25°C° 0 mm 2 mps 693 mmHg 39%
04:00 +24°C° 0 mm 2 mps 693 mmHg 40%
05:00 +24°C° 0 mm 2 mps 694 mmHg 40%
06:00 +23°C° 0 mm 2 mps 694 mmHg 41%
07:00 +26°C° 0 mm 3 mps 695 mmHg 36%
08:00 +29°C° 0 mm 4 mps 695 mmHg 31%
09:00 +32°C° 0 mm 4 mps 696 mmHg 27%
10:00 +34°C° 0 mm 4 mps 696 mmHg 23%
11:00 +36°C° 0 mm 3 mps 696 mmHg 19%
12:00 +39°C° 0 mm 2 mps 696 mmHg 15%
13:00 +39°C° 0 mm 2 mps 695 mmHg 15%
14:00 +39°C° 0 mm 2 mps 694 mmHg 14%
15:00 +39°C° 0 mm 2 mps 693 mmHg 13%
16:00 +37°C° 0 mm 2 mps 693 mmHg 15%
17:00 +35°C° 0 mm 2 mps 692 mmHg 18%
18:00 +32°C° 0 mm 2 mps 692 mmHg 20%
19:00 +31°C° 0 mm 2 mps 692 mmHg 21%
20:00 +29°C° 0 mm 2 mps 692 mmHg 23%
21:00 +27°C° 0 mm 2 mps 693 mmHg 24%
22:00 +27°C° 0 mm 2 mps 693 mmHg 25%
23:00 +27°C° 0 mm 3 mps 693 mmHg 27%

27 September, Sunday

Time Temperature Precipitation Wind Pressure Humidity
00:00 +26°C° 0 mm 3 mps 693 mmHg 28%
01:00 +26°C° 0 mm 3 mps 693 mmHg 29%
02:00 +25°C° 0 mm 2 mps 692 mmHg 31%
03:00 +25°C° 0 mm 2 mps 692 mmHg 32%
04:00 +24°C° 0 mm 2 mps 692 mmHg 34%
05:00 +24°C° 0 mm 2 mps 692 mmHg 35%
06:00 +23°C° 0 mm 1 mps 693 mmHg 37%
07:00 +26°C° 0 mm 2 mps 694 mmHg 32%
08:00 +29°C° 0 mm 2 mps 695 mmHg 27%
09:00 +33°C° 0 mm 3 mps 696 mmHg 22%
10:00 +35°C° 0 mm 3 mps 695 mmHg 19%
11:00 +37°C° 0 mm 2 mps 695 mmHg 16%
12:00 +39°C° 0 mm 2 mps 695 mmHg 14%
13:00 +39°C° 0 mm 2 mps 694 mmHg 13%
14:00 +40°C° 0 mm 2 mps 694 mmHg 12%
15:00 +40°C° 0 mm 2 mps 693 mmHg 11%
16:00 +38°C° 0 mm 2 mps 692 mmHg 13%
17:00 +36°C° 0 mm 2 mps 692 mmHg 15%
18:00 +33°C° 0 mm 1 mps 692 mmHg 17%
19:00 +31°C° 0 mm 1 mps 692 mmHg 19%
20:00 +29°C° 0 mm 1 mps 692 mmHg 21%
21:00 +27°C° 0 mm 1 mps 692 mmHg 23%
22:00 +27°C° 0 mm 1 mps 692 mmHg 24%
23:00 +26°C° 0 mm 1 mps 692 mmHg 24%

28 September, Monday

Time Temperature Precipitation Wind Pressure Humidity
00:00 +26°C° 0 mm 1 mps 693 mmHg 25%
01:00 +25°C° 0 mm 1 mps 692 mmHg 26%
02:00 +25°C° 0 mm 1 mps 692 mmHg 28%
03:00 +24°C° 0 mm 1 mps 692 mmHg 29%
04:00 +24°C° 0 mm 1 mps 692 mmHg 31%
05:00 +23°C° 0 mm 1 mps 692 mmHg 32%
06:00 +23°C° 0 mm 1 mps 692 mmHg 34%
07:00 +27°C° 0 mm 2 mps 693 mmHg 29%
08:00 +31°C° 0 mm 2 mps 694 mmHg 23%
09:00 +35°C° 0 mm 3 mps 695 mmHg 18%
10:00 +37°C° 0 mm 2 mps 695 mmHg 16%
11:00 +39°C° 0 mm 2 mps 695 mmHg 14%
12:00 +41°C° 0 mm 2 mps 695 mmHg 12%
13:00 +41°C° 0 mm 2 mps 694 mmHg 11%
14:00 +41°C° 0 mm 2 mps 693 mmHg 11%
15:00 +42°C° 0 mm 1 mps 693 mmHg 10%
16:00 +39°C° 0 mm 1 mps 692 mmHg 12%
17:00 +36°C° 0 mm 1 mps 692 mmHg 14%
18:00 +34°C° 0 mm 1 mps 691 mmHg 16%
19:00 +32°C° 0 mm 1 mps 691 mmHg 17%
20:00 +30°C° 0 mm 1 mps 692 mmHg 18%
21:00 +28°C° 0 mm 1 mps 692 mmHg 19%
22:00 +27°C° 0 mm 1 mps 692 mmHg 20%
23:00 +27°C° 0 mm 1 mps 692 mmHg 20%

29 September, Tuesday

Time Temperature Precipitation Wind Pressure Humidity
00:00 +26°C° 0 mm 1 mps 692 mmHg 20%
01:00 +26°C° 0 mm 1 mps 692 mmHg 21%
02:00 +25°C° 0 mm 1 mps 691 mmHg 22%
03:00 +25°C° 0 mm 1 mps 691 mmHg 22%
04:00 +25°C° 0 mm 1 mps 691 mmHg 23%
05:00 +24°C° 0 mm 1 mps 692 mmHg 24%
06:00 +24°C° 0 mm 1 mps 692 mmHg 25%
07:00 +28°C° 0 mm 2 mps 693 mmHg 22%
08:00 +31°C° 0 mm 3 mps 694 mmHg 20%
09:00 +36°C° 0 mm 4 mps 695 mmHg 18%
10:00 +38°C° 0 mm 4 mps 695 mmHg 15%
11:00 +41°C° 0 mm 4 mps 695 mmHg 13%
12:00 +42°C° 0 mm 4 mps 695 mmHg 11%
13:00 +42°C° 0 mm 4 mps 694 mmHg 11%
14:00 +43°C° 0 mm 4 mps 693 mmHg 11%
15:00 +43°C° 0 mm 4 mps 693 mmHg 11%
16:00 +40°C° 0 mm 3 mps 692 mmHg 13%
17:00 +38°C° 0 mm 3 mps 692 mmHg 14%
18:00 +36°C° 0 mm 2 mps 692 mmHg 16%
19:00 +34°C° 0 mm 2 mps 692 mmHg 17%
20:00 +32°C° 0 mm 2 mps 692 mmHg 18%
21:00 +30°C° 0 mm 2 mps 693 mmHg 20%
22:00 +29°C° 0 mm 2 mps 693 mmHg 21%
23:00 +29°C° 0 mm 2 mps 693 mmHg 22%
Show more